Blytheville Muni Airport, AR

11:15 PM CDT on May 27, 2017 (GMT -0500)
Blytheville Municipal

Weather History for KHKA - November, 2012

Change the Weather History Date:

Tuesday, November 6, 2012

  Actual Average Record
Temperature  
Mean Temperature 48 °F -  
Max Temperature 52 °F 61 °F 82 °F (1978)
Min Temperature 44 °F 41 °F 25 °F (1967)
Degree Days  
Heating Degree Days 17    
Moisture  
Dew Point 43 °F    
Average Humidity 83    
Maximum Humidity 93    
Minimum Humidity 69    
Precipitation  
Precipitation 0.00 in - - ()
Sea Level Pressure  
Sea Level Pressure 30.03 in    
Wind  
Wind Speed 6 mph (NW)    
Max Wind Speed 10 mph    
Max Gust Speed -    
Visibility 8 miles    
Events      
Averages and records for this station are not official NWS values.
T = Trace of Precipitation, MM = Missing Value Source: NWS Daily Summary

Daily Weather History Graph

Daily Weather History Graph

Search for Another Location

Airport or City:

Trip Planner

Search our weather history database for the weather conditions in past years. The results will help you decide how hot, cold, wet, or windy it might be!

Date:

Astronomy

Nov. 06, 2012 Rise Set
Actual Time 6:27 AM CST 4:58 PM CST
Civil Twilight 6:00 AM CST 5:25 PM CST
Nautical Twilight 5:29 AM CST 5:55 PM CST
Astronomical Twilight 4:59 AM CST 6:25 PM CST
Moon 11:35 PM CST (11/6) 12:20 PM CST (11/6)
Length of Visible Light 11h 24m
Length of Day
10h 31m
Waning Gibbous, 53% of the Moon is Illuminated
Nov 6
Waning Gibbous
Nov 6
Last Quarter
Nov 13
New
Nov 20
First Quarter
Nov 28
Full

Hourly Weather History & Observations

Time (CST) Temp. Windchill Dew Point Humidity Pressure Visibility Wind Dir Wind Speed Gust Speed Precip Events Conditions
12:53 AM 45.0 °F 42.6 °F 42.1 °F 90% 30.04 in 9.0 mi NE 4.6 mph - N/A   Overcast
1:53 AM 45.0 °F 42.6 °F 43.0 °F 93% 30.05 in 8.0 mi NNE 4.6 mph - N/A   Overcast
2:00 AM 44.6 °F 43.1 °F 42.8 °F 93% 30.04 in 8.0 mi NNE 3.5 mph - N/A   Overcast
2:07 AM 44.6 °F 41.4 °F 42.8 °F 93% 30.04 in 8.0 mi NNE 5.8 mph - N/A   Overcast
2:35 AM 44.6 °F 42.2 °F 42.8 °F 93% 30.05 in 7.0 mi North 4.6 mph - N/A   Overcast
2:53 AM 45.0 °F 41.2 °F 43.0 °F 93% 30.06 in 7.0 mi North 6.9 mph - N/A   Overcast
3:53 AM 45.0 °F 42.6 °F 42.1 °F 90% 30.04 in 7.0 mi NNE 4.6 mph - N/A   Overcast
4:53 AM 45.0 °F 42.6 °F 43.0 °F 93% 30.05 in 6.0 mi North 4.6 mph - N/A   Overcast
5:53 AM 45.0 °F 40.1 °F 43.0 °F 93% 30.06 in 4.0 mi North 9.2 mph - N/A   Overcast
6:26 AM 44.6 °F 40.2 °F 42.8 °F 93% 30.07 in 4.0 mi North 8.1 mph - N/A   Overcast
6:53 AM 44.1 °F 40.1 °F 42.1 °F 93% 30.08 in 4.0 mi North 6.9 mph - N/A   Overcast
7:53 AM 45.0 °F 43.5 °F 42.1 °F 90% 30.08 in 4.0 mi ENE 3.5 mph - N/A   Overcast
8:53 AM 46.0 °F 44.8 °F 43.0 °F 89% 30.07 in 5.0 mi East 3.5 mph - N/A   Overcast
9:53 AM 46.0 °F 43.1 °F 43.0 °F 89% 30.10 in 5.0 mi NW 5.8 mph - N/A   Overcast
10:45 AM 48.2 °F - 44.6 °F 87% 30.09 in 8.0 mi NW 3.5 mph - N/A   Overcast
10:53 AM 48.9 °F - 43.0 °F 80% 30.09 in 8.0 mi WNW 4.6 mph - N/A   Overcast
11:53 AM 51.1 °F - 44.1 °F 77% 30.05 in 10.0 mi Variable 4.6 mph - N/A   Overcast
12:18 PM 50.0 °F - 42.8 °F 76% 30.03 in 10.0 mi Variable 4.6 mph - N/A   Overcast
12:53 PM 51.1 °F - 44.1 °F 77% 30.04 in 10.0 mi West 9.2 mph - N/A   Overcast
1:39 PM 51.8 °F - 42.8 °F 71% 30.01 in 10.0 mi WSW 5.8 mph - N/A   Mostly Cloudy
1:53 PM 52.0 °F - 42.1 °F 69% 30.01 in 10.0 mi WSW 10.4 mph - N/A   Scattered Clouds
2:05 PM 51.8 °F - 42.8 °F 71% 30.00 in 10.0 mi SW 8.1 mph - N/A   Mostly Cloudy
2:45 PM 51.8 °F - 42.8 °F 71% 29.99 in 10.0 mi WSW 6.9 mph - N/A   Overcast
2:53 PM 52.0 °F - 42.1 °F 69% 30.00 in 10.0 mi WSW 8.1 mph - N/A   Overcast
3:53 PM 52.0 °F - 43.0 °F 71% 29.98 in 10.0 mi West 10.4 mph - N/A   Overcast
4:11 PM 51.8 °F - 42.8 °F 71% 29.98 in 10.0 mi West 10.4 mph - N/A   Overcast
4:53 PM 51.1 °F - 42.1 °F 71% 29.98 in 10.0 mi West 8.1 mph - N/A   Overcast
5:53 PM 50.0 °F - 42.1 °F 74% 30.00 in 10.0 mi West 6.9 mph - N/A   Overcast
6:53 PM 50.0 °F - 43.0 °F 77% 30.01 in 10.0 mi West 4.6 mph - N/A   Overcast
7:53 PM 46.0 °F 43.1 °F 42.1 °F 86% 30.02 in 10.0 mi West 5.8 mph - N/A   Scattered Clouds
8:53 PM 44.1 °F - 39.9 °F 85% 30.02 in 10.0 mi Calm Calm - N/A   Clear
9:53 PM 48.0 °F - 43.0 °F 83% 30.02 in 10.0 mi West 5.8 mph - N/A   Overcast
10:53 PM 48.0 °F - 43.0 °F 83% 30.00 in 10.0 mi West 5.8 mph - N/A   Overcast
11:53 PM 46.0 °F 44.8 °F 42.1 °F 86% 30.00 in 10.0 mi West 3.5 mph - N/A   Overcast